Weather History for Minot AFB, ND

Change the Weather History Date:

Sunday, October 9, 2011

  Actual Average Record
Temperature  
Mean Temperature 42 °F -  
Max Temperature 53 °F 57 °F 86 °F (2003)
Min Temperature 30 °F 33 °F 23 °F (2014)
Degree Days  
Heating Degree Days 24    
Moisture  
Dew Point 43 °F    
Average Humidity 92    
Maximum Humidity 100    
Minimum Humidity 57    
Precipitation  
Precipitation 0.05 in - - ()
Sea Level Pressure  
Sea Level Pressure 30.16 in    
Wind  
Wind Speed 6 mph (East)    
Max Wind Speed 9 mph    
Max Gust Speed -    
Visibility 9 miles    
Events Rain    
Averages and records for this station are not official NWS values.
T = Trace of Precipitation, MM = Missing Value Source: NWS Daily Summary

Daily Weather History Graph

Daily Weather History Graph

Search for Another Location

Airport:

Trip Planner

Search our weather history database for the weather conditions in past years. The results will help you decide how hot, cold, wet, or windy it might be!

Date:

Astronomy

Oct. 09, 2011 Rise Set
Actual Time 7:56 AM CDT 7:08 PM CDT
Civil Twilight 7:24 AM CDT 7:39 PM CDT
Nautical Twilight 6:48 AM CDT 8:15 PM CDT
Astronomical Twilight 6:11 AM CDT 8:52 PM CDT
Moon 5:51 PM CDT (10/9) 5:35 AM CDT (10/9)
Length of Visible Light 12h 15m
Length of Day
11h 12m
Waxing Gibbous, 95% of the Moon is Illuminated
Oct 9
Waxing Gibbous
Oct 11
Full
Oct 19
Last Quarter
Oct 26
New
Nov 2
First Quarter

Hourly Weather History & Observations

Time (CDT) Temp. Windchill Dew Point Humidity Pressure Visibility Wind Dir Wind Speed Gust Speed Precip Events Conditions
12:55 AM 37.9 °F 33.5 °F 37.6 °F 99% 30.27 in 10.0 mi WNW 5.8 mph - N/A   Clear
1:55 AM 37.2 °F 31.9 °F 37.0 °F 99% 30.28 in 10.0 mi WNW 6.9 mph - N/A   Clear
2:55 AM 34.5 °F 28.6 °F 34.3 °F 99% 30.28 in 10.0 mi WNW 6.9 mph - N/A   Clear
3:55 AM 34.0 °F 28.0 °F 33.8 °F 99% 30.28 in 10.0 mi WNW 6.9 mph - N/A   Clear
4:55 AM 34.2 °F 28.2 °F 34.0 °F 99% 30.30 in 10.0 mi NW 6.9 mph - N/A   Clear
5:55 AM 32.2 °F 27.7 °F 31.8 °F 99% 30.31 in 10.0 mi NW 4.6 mph - N/A   Clear
6:55 AM 30.4 °F 22.9 °F 30.0 °F 99% 30.31 in 10.0 mi NW 8.1 mph - N/A   Clear
7:55 AM 33.6 °F - 33.6 °F 100% 30.31 in 10.0 mi Calm Calm - N/A   Clear
8:55 AM 35.6 °F 32.8 °F 35.6 °F 100% 30.32 in 10.0 mi WNW 3.5 mph - N/A   Clear
9:55 AM 42.6 °F - 42.3 °F 99% 30.31 in 10.0 mi Calm Calm - N/A   Clear
10:55 AM 45.9 °F 43.6 °F 44.1 °F 93% 30.30 in 10.0 mi SE 4.6 mph - N/A   Clear
11:55 AM 49.5 °F - 39.0 °F 67% 30.28 in 10.0 mi SE 8.1 mph - N/A   Mostly Cloudy
12:55 PM 51.6 °F - 38.1 °F 60% 30.26 in 10.0 mi ESE 8.1 mph - N/A   Mostly Cloudy
1:55 PM 53.1 °F - 37.9 °F 57% 30.23 in 10.0 mi SE 5.8 mph - N/A   Mostly Cloudy
2:55 PM 52.5 °F - 39.4 °F 61% 30.21 in 10.0 mi SE 5.8 mph - N/A   Overcast
3:55 PM 53.4 °F - 40.3 °F 61% 30.19 in 10.0 mi ESE 6.9 mph - N/A   Overcast
4:55 PM 52.5 °F - 40.8 °F 64% 30.16 in 10.0 mi East 8.1 mph - N/A   Overcast
5:55 PM 52.3 °F - 41.9 °F 68% 30.15 in 10.0 mi East 9.2 mph - N/A   Overcast
6:55 PM 50.9 °F - 49.1 °F 94% 30.13 in 10.0 mi ESE 6.9 mph - N/A   Mostly Cloudy
7:55 PM 49.5 °F - 49.1 °F 99% 30.11 in 10.0 mi East 6.9 mph - N/A   Overcast
8:46 PM 48.2 °F - 48.2 °F 100% 30.11 in 10.0 mi SE 6.9 mph - N/A   Light Drizzle
8:55 PM 47.7 °F - 47.7 °F 100% 30.10 in 10.0 mi ESE 6.9 mph - 0.01 in   Light Drizzle
9:39 PM 48.2 °F - 48.2 °F 100% 30.07 in 10.0 mi ESE 5.8 mph - N/A   Overcast
9:42 PM 48.2 °F - 48.2 °F 100% 30.07 in 10.0 mi ESE 6.9 mph - N/A   Overcast
9:55 PM 47.3 °F - 47.3 °F 100% 30.06 in 10.0 mi East 5.8 mph - 0.01 in   Overcast
10:20 PM 48.2 °F - 48.2 °F 100% 30.05 in 7.0 mi East 6.9 mph - N/A   Light Drizzle
10:30 PM 48.2 °F - 48.2 °F 100% 30.04 in 9.0 mi East 5.8 mph - N/A   Light Drizzle
10:33 PM 48.2 °F - 48.2 °F 100% 30.04 in 9.0 mi East 5.8 mph - N/A   Light Drizzle
10:37 PM 48.2 °F - 48.2 °F 100% 30.04 in 7.0 mi East 5.8 mph - N/A   Light Drizzle
10:41 PM 48.2 °F - 48.2 °F 100% 30.04 in 6.0 mi East 5.8 mph - N/A   Light Drizzle
10:52 PM 48.2 °F - 48.2 °F 100% 30.03 in 7.0 mi East 5.8 mph - N/A   Light Drizzle
10:55 PM 47.5 °F - 47.5 °F 100% 30.03 in 7.0 mi East 5.8 mph - 0.01 in   Light Drizzle
11:19 PM 48.2 °F - 48.2 °F 100% 30.02 in 9.0 mi East 5.8 mph - N/A Rain Light Rain
11:35 PM 48.2 °F - 48.2 °F 100% 30.01 in 9.0 mi East 6.9 mph - N/A Rain Light Rain
11:41 PM 48.2 °F - 48.2 °F 100% 30.01 in 8.0 mi East 6.9 mph - N/A Rain Light Rain
11:55 PM 47.5 °F - 47.5 °F 100% 30.00 in 7.0 mi East 8.1 mph - 0.02 in Rain Light Rain